Watford City, ND

3:00 PM CST on December 11, 2019 (GMT -0600)
Watford City

Weather History for KS25 - October, 2019

Change the Weather History Date:

Sunday, October 6, 2019

  Actual Average (WUND) Record (WUND)
Temperature  
Mean Temperature 50 °F -  
Max Temperature 59 °F - - (-1)
Min Temperature 41 °F - - (-1)
Degree Days  
Heating Degree Days 14    
Moisture  
Dew Point 36 °F    
Average Humidity 59    
Maximum Humidity 76    
Minimum Humidity 39    
Precipitation  
Precipitation 0.00 in - - ()
Sea Level Pressure  
Sea Level Pressure 30.00 in    
Wind  
Wind Speed 16 mph (West)    
Max Wind Speed 24 mph    
Max Gust Speed 38 mph    
Visibility 10 miles    
Events      
Averages and records for this station are not official NWS values.
T = Trace of Precipitation, MM = Missing Value Source: NWS Daily Summary

Daily Weather History Graph

Daily Weather History Graph

Search for Another Location

Airport or City:

Astronomy

Oct. 06, 2019 Rise Set
Actual Time 7:58 AM CDT 7:22 PM CDT
Civil Twilight 7:28 AM CDT 7:53 PM CDT
Nautical Twilight 6:52 AM CDT 8:29 PM CDT
Astronomical Twilight 6:16 AM CDT 9:05 PM CDT
Moon 4:35 PM CDT (10/6) 12:25 AM CDT (10/6)
Length of Visible Light 12h 25m
Length of Day
11h 23m
First Quarter, 60% of the Moon is Illuminated
Oct 6
First Quarter
Oct 13
Full
Oct 21
Last Quarter
Oct 27
New
Nov 4
First Quarter

Hourly Weather History & Observations

Time (CDT) Temp. Windchill Dew Point Humidity Pressure Visibility Wind Dir Wind Speed Gust Speed Precip Events Conditions
12:15 AM 46.4 °F 40.1 °F 37.4 °F 71% 29.86 in 10.0 mi West 15.0 mph - N/A   Overcast
12:35 AM 48.2 °F - 37.4 °F 66% 29.86 in 10.0 mi West 17.3 mph 23.0 mph N/A   Overcast
12:55 AM 48.2 °F - 37.4 °F 66% 29.86 in 10.0 mi West 15.0 mph - N/A   Mostly Cloudy
1:15 AM 50.0 °F - 35.6 °F 58% 29.86 in 10.0 mi West 15.0 mph 21.9 mph N/A   Mostly Cloudy
1:35 AM 48.2 °F - 37.4 °F 66% 29.87 in 10.0 mi West 15.0 mph 20.7 mph N/A   Mostly Cloudy
1:55 AM 48.2 °F - 37.4 °F 66% 29.87 in 10.0 mi West 16.1 mph - N/A   Scattered Clouds
2:15 AM 48.2 °F - 37.4 °F 66% 29.88 in 10.0 mi West 16.1 mph 23.0 mph N/A   Mostly Cloudy
2:35 AM 48.2 °F - 37.4 °F 66% 29.89 in 10.0 mi West 15.0 mph 20.7 mph N/A   Mostly Cloudy
2:55 AM 46.4 °F 40.7 °F 37.4 °F 71% 29.90 in 10.0 mi West 12.7 mph 19.6 mph N/A   Partly Cloudy
3:15 AM 46.4 °F 40.7 °F 37.4 °F 71% 29.91 in 10.0 mi West 12.7 mph - N/A   Mostly Cloudy
3:35 AM 46.4 °F 41.1 °F 37.4 °F 71% 29.91 in 10.0 mi West 11.5 mph 18.4 mph N/A   Mostly Cloudy
3:55 AM 46.4 °F 40.1 °F 35.6 °F 66% 29.91 in 10.0 mi West 15.0 mph - N/A   Overcast
4:15 AM 46.4 °F 40.7 °F 35.6 °F 66% 29.92 in 10.0 mi West 12.7 mph 19.6 mph N/A   Mostly Cloudy
4:35 AM 46.4 °F 40.4 °F 35.6 °F 66% 29.92 in 10.0 mi West 13.8 mph 21.9 mph N/A   Mostly Cloudy
4:55 AM 46.4 °F 40.4 °F 37.4 °F 71% 29.93 in 10.0 mi West 13.8 mph - N/A   Mostly Cloudy
5:15 AM 46.4 °F 40.1 °F 37.4 °F 71% 29.93 in 10.0 mi West 15.0 mph - N/A   Mostly Cloudy
5:35 AM 46.4 °F 39.2 °F 35.6 °F 66% 29.94 in 10.0 mi West 18.4 mph - N/A   Mostly Cloudy
5:55 AM 46.4 °F 40.1 °F 35.6 °F 66% 29.95 in 10.0 mi West 15.0 mph 21.9 mph N/A   Overcast
6:15 AM 46.4 °F 40.1 °F 35.6 °F 66% 29.96 in 10.0 mi West 15.0 mph 20.7 mph N/A   Mostly Cloudy
6:35 AM 46.4 °F 39.5 °F 35.6 °F 66% 29.96 in 10.0 mi West 17.3 mph - N/A   Overcast
6:55 AM 46.4 °F 39.5 °F 35.6 °F 66% 29.97 in 10.0 mi West 17.3 mph 24.2 mph N/A   Overcast
7:15 AM 46.4 °F 40.1 °F 35.6 °F 66% 29.97 in 10.0 mi West 15.0 mph 24.2 mph N/A   Overcast
7:35 AM 46.4 °F 39.2 °F 35.6 °F 66% 29.97 in 10.0 mi West 18.4 mph 25.3 mph N/A   Overcast
7:55 AM 44.6 °F 37.2 °F 35.6 °F 71% 29.98 in 10.0 mi West 17.3 mph 23.0 mph N/A   Overcast
8:15 AM 44.6 °F 37.2 °F 35.6 °F 71% 29.98 in 10.0 mi West 17.3 mph - N/A   Overcast
8:35 AM 44.6 °F 37.8 °F 35.6 °F 71% 29.99 in 10.0 mi West 15.0 mph 23.0 mph N/A   Overcast
8:55 AM 44.6 °F 37.8 °F 35.6 °F 71% 30.00 in 10.0 mi West 15.0 mph - N/A   Overcast
9:15 AM 44.6 °F 37.4 °F 35.6 °F 71% 30.00 in 10.0 mi West 16.1 mph 21.9 mph N/A   Overcast
9:35 AM 44.6 °F 37.2 °F 35.6 °F 71% 30.01 in 10.0 mi West 17.3 mph 23.0 mph N/A   Mostly Cloudy
9:55 AM 46.4 °F 39.2 °F 35.6 °F 66% 30.01 in 10.0 mi West 18.4 mph 24.2 mph N/A   Scattered Clouds
10:15 AM 46.4 °F 39.0 °F 35.6 °F 66% 30.01 in 10.0 mi West 19.6 mph - N/A   Scattered Clouds
10:35 AM 50.0 °F - 35.6 °F 58% 30.01 in 10.0 mi West 23.0 mph - N/A   Scattered Clouds
10:55 AM 50.0 °F - 35.6 °F 58% 30.02 in 10.0 mi West 19.6 mph 28.8 mph N/A   Scattered Clouds
11:15 AM 50.0 °F - 35.6 °F 58% 30.02 in 10.0 mi WNW 19.6 mph 29.9 mph N/A   Scattered Clouds
11:35 AM 50.0 °F - 35.6 °F 58% 30.03 in 10.0 mi West 21.9 mph - N/A   Scattered Clouds
11:55 AM 50.0 °F - 35.6 °F 58% 30.03 in 10.0 mi West 21.9 mph 27.6 mph N/A   Scattered Clouds
12:15 PM 53.6 °F - 35.6 °F 51% 30.03 in 10.0 mi West 20.7 mph 26.5 mph N/A   Partly Cloudy
12:35 PM 51.8 °F - 35.6 °F 54% 30.03 in 10.0 mi West 20.7 mph 28.8 mph N/A   Partly Cloudy
12:55 PM 53.6 °F - 35.6 °F 51% 30.03 in 10.0 mi West 23.0 mph 32.2 mph N/A   Clear
1:15 PM 55.4 °F - 35.6 °F 47% 30.03 in 10.0 mi West 17.3 mph 32.2 mph N/A   Clear
1:35 PM 55.4 °F - 35.6 °F 47% 30.03 in 10.0 mi WNW 20.7 mph 31.1 mph N/A   Clear
1:55 PM 55.4 °F - 37.4 °F 51% 30.03 in 10.0 mi WNW 19.6 mph 26.5 mph N/A   Clear
2:15 PM 57.2 °F - 37.4 °F 48% 30.03 in 10.0 mi WNW 21.9 mph 28.8 mph N/A   Clear
2:35 PM 57.2 °F - 35.6 °F 44% 30.03 in 10.0 mi WNW 20.7 mph 32.2 mph N/A   Clear
2:55 PM 57.2 °F - 35.6 °F 44% 30.03 in 10.0 mi WNW 21.9 mph 31.1 mph N/A   Scattered Clouds
3:15 PM 57.2 °F - 33.8 °F 41% 30.03 in 10.0 mi WNW 19.6 mph 28.8 mph N/A   Mostly Cloudy
3:35 PM 55.4 °F - 33.8 °F 44% 30.03 in 10.0 mi WNW 21.9 mph 33.4 mph N/A   Scattered Clouds
3:55 PM 57.2 °F - 33.8 °F 41% 30.03 in 10.0 mi NW 24.2 mph 33.4 mph N/A   Scattered Clouds
4:15 PM 57.2 °F - 33.8 °F 41% 30.03 in 10.0 mi WNW 23.0 mph 29.9 mph N/A   Partly Cloudy
4:35 PM 59.0 °F - 35.6 °F 42% 30.03 in 10.0 mi WNW 20.7 mph 38.0 mph N/A   Partly Cloudy
4:55 PM 59.0 °F - 33.8 °F 39% 30.02 in 10.0 mi WNW 24.2 mph 31.1 mph N/A   Mostly Cloudy
5:15 PM 59.0 °F - 35.6 °F 42% 30.03 in 10.0 mi WNW 24.2 mph 32.2 mph N/A   Mostly Cloudy
5:35 PM 57.2 °F - 33.8 °F 41% 30.03 in 10.0 mi WNW 18.4 mph 25.3 mph N/A   Scattered Clouds
5:55 PM 59.0 °F - 33.8 °F 39% 30.03 in 10.0 mi WNW 20.7 mph 27.6 mph N/A   Mostly Cloudy
6:15 PM 57.2 °F - 33.8 °F 41% 30.04 in 10.0 mi WNW 15.0 mph 25.3 mph N/A   Scattered Clouds
6:35 PM 55.4 °F - 35.6 °F 47% 30.04 in 10.0 mi WNW 13.8 mph - N/A   Partly Cloudy
6:55 PM 55.4 °F - 33.8 °F 44% 30.04 in 10.0 mi WNW 11.5 mph 18.4 mph N/A   Mostly Cloudy
7:15 PM 55.4 °F - 33.8 °F 44% 30.04 in 10.0 mi WNW 13.8 mph 20.7 mph N/A   Scattered Clouds
7:35 PM 53.6 °F - 33.8 °F 47% 30.04 in 10.0 mi West 10.4 mph - N/A   Partly Cloudy
7:55 PM 51.8 °F - 35.6 °F 54% 30.05 in 10.0 mi West 9.2 mph - N/A   Scattered Clouds
8:15 PM 51.8 °F - 35.6 °F 54% 30.05 in 10.0 mi West 9.2 mph - N/A   Overcast
8:35 PM 51.8 °F - 35.6 °F 54% 30.05 in 10.0 mi West 12.7 mph - N/A   Mostly Cloudy
8:55 PM 50.0 °F - 35.6 °F 58% 30.06 in 10.0 mi West 9.2 mph 16.1 mph N/A   Mostly Cloudy
9:15 PM 48.2 °F - 35.6 °F 62% 30.06 in 10.0 mi West 9.2 mph - N/A   Partly Cloudy
9:35 PM 46.4 °F 42.9 °F 35.6 °F 66% 30.07 in 10.0 mi WSW 6.9 mph - N/A   Clear
9:55 PM 46.4 °F 41.9 °F 35.6 °F 66% 30.07 in 10.0 mi West 9.2 mph - N/A   Partly Cloudy
10:15 PM 46.4 °F 41.9 °F 35.6 °F 66% 30.07 in 10.0 mi WSW 9.2 mph - N/A   Clear
10:35 PM 46.4 °F 42.9 °F 33.8 °F 62% 30.08 in 10.0 mi WSW 6.9 mph - N/A   Clear
10:55 PM 42.8 °F 38.0 °F 33.8 °F 70% 30.08 in 10.0 mi SSW 8.1 mph - N/A   Clear
11:15 PM 42.8 °F 38.0 °F 33.8 °F 70% 30.08 in 10.0 mi SW 8.1 mph - N/A   Clear
11:35 PM 42.8 °F 36.6 °F 33.8 °F 70% 30.08 in 10.0 mi SW 11.5 mph - N/A   Clear
11:55 PM 41.0 °F 34.7 °F 33.8 °F 76% 30.08 in 10.0 mi SW 10.4 mph - N/A   Clear